Location: Eboldshausen
(51.7766°N, 10.0050°E)
Time: 01:53:32
(UTC+00:00)

ATLAS 2AS CENTAUR R/B - Pass Details

Date: 15 November 2025
Orbit: 1047 x 1163 km, 63.7° (Epoch: 13 December)

Event Time Altitude Azimuth Distance (km) Brightness Sun altitude
Rises 17:54:28 0° 310° (NW) 3,865 6.4 -22.2°
Reaches altitude 10° 17:57:16 10° 316° (NW) 2,895 5.5 -22.6°
Maximum altitude 18:03:50 48° 30° (NNE) 1,359 3.0 -23.7°
Enters shadow 18:05:02 43° 59° (ENE) 1,436 2.9 -23.8°
